TimePST,TemperatureF,Dew PointF,Humidity,Sea Level PressureIn,VisibilityMPH,Wind Direction,Wind SpeedMPH,Gust SpeedMPH,PrecipitationIn,Events,Conditions,WindDirDegrees,DateUTC
1:53 AM,21.0,17.1,85,30.45,-9999.0,Calm,Calm,-,N/A,,Overcast,0,2013-01-21 09:53:00
2:53 AM,21.0,16.0,81,30.45,-9999.0,West,5.8,-,N/A,,Overcast,260,2013-01-21 10:53:00
3:53 AM,19.0,15.1,85,30.45,-9999.0,NW,3.5,-,N/A,,Overcast,310,2013-01-21 11:53:00
4:53 AM,19.0,15.1,85,30.45,-9999.0,West,4.6,-,N/A,,Unknown,280,2013-01-21 12:53:00
5:09 AM,19.4,15.8,86,30.37,-9999.0,NW,4.6,-,N/A,,Overcast,320,2013-01-21 13:09:00
5:53 AM,19.9,16.0,85,30.44,-9999.0,Calm,Calm,-,N/A,,Overcast,0,2013-01-21 13:53:00
6:53 AM,19.9,17.1,89,30.43,-9999.0,Calm,Calm,-,N/A,,Overcast,0,2013-01-21 14:53:00
7:53 AM,21.0,17.1,85,30.42,-9999.0,Calm,Calm,-,N/A,,Overcast,0,2013-01-21 15:53:00
8:05 AM,19.4,15.8,86,30.34,0.5,Calm,Calm,-,N/A,Fog,Light Freezing Fog,0,2013-01-21 16:05:00
8:32 AM,19.4,15.8,86,30.35,1.0,Calm,Calm,-,N/A,,Overcast,0,2013-01-21 16:32:00
8:53 AM,19.9,17.1,89,30.43,1.0,Calm,Calm,-,N/A,,Overcast,0,2013-01-21 16:53:00
9:06 AM,19.4,15.8,86,30.35,0.8,West,3.5,-,N/A,,Overcast,280,2013-01-21 17:06:00
9:14 AM,19.4,15.8,86,30.35,1.0,Calm,Calm,-,N/A,,Overcast,0,2013-01-21 17:14:00
9:33 AM,19.4,17.6,93,30.35,1.2,Calm,Calm,-,N/A,,Overcast,0,2013-01-21 17:33:00
9:53 AM,19.9,16.0,85,30.44,1.0,WSW,4.6,-,N/A,,Overcast,250,2013-01-21 17:53:00
10:29 AM,21.2,15.8,80,30.36,1.5,NNW,3.5,-,N/A,,Haze,330,2013-01-21 18:29:00
10:53 AM,21.0,17.1,85,30.44,1.2,South,4.6,-,N/A,,Overcast,180,2013-01-21 18:53:00
11:01 AM,21.2,17.6,86,30.36,0.8,Calm,Calm,-,N/A,,Overcast,0,2013-01-21 19:01:00
11:13 AM,21.2,17.6,86,30.36,1.2,Calm,Calm,-,N/A,,Overcast,0,2013-01-21 19:13:00
11:24 AM,21.2,17.6,86,30.35,2.5,Calm,Calm,-,N/A,,Overcast,0,2013-01-21 19:24:00
11:33 AM,21.2,17.6,86,30.35,4.0,Calm,Calm,-,N/A,,Overcast,0,2013-01-21 19:33:00
11:53 AM,21.0,17.1,85,30.43,4.0,SE,3.5,-,N/A,,Overcast,140,2013-01-21 19:53:00
12:09 PM,21.2,17.6,86,30.34,1.8,Calm,Calm,-,N/A,,Overcast,0,2013-01-21 20:09:00
12:38 PM,21.2,17.6,86,30.33,2.5,Calm,Calm,-,N/A,,Overcast,0,2013-01-21 20:38:00
12:53 PM,21.0,17.1,85,30.40,1.5,Calm,Calm,-,N/A,,Overcast,0,2013-01-21 20:53:00
1:21 PM,21.2,17.6,86,30.32,1.0,Calm,Calm,-,N/A,,Haze,0,2013-01-21 21:21:00
1:28 PM,21.2,17.6,86,30.31,1.8,Calm,Calm,-,N/A,,Haze,0,2013-01-21 21:28:00
1:35 PM,21.2,17.6,86,30.31,3.0,SSE,3.5,-,N/A,,Overcast,150,2013-01-21 21:35:00
1:53 PM,21.0,17.1,85,30.39,4.0,Calm,Calm,-,N/A,,Overcast,0,2013-01-21 21:53:00
2:53 PM,21.9,18.0,85,30.38,7.0,Calm,Calm,-,N/A,,Overcast,0,2013-01-21 22:53:00
3:53 PM,21.9,17.1,82,30.37,7.0,Calm,Calm,-,N/A,,Overcast,0,2013-01-21 23:53:00
4:53 PM,21.9,18.0,85,30.37,8.0,Calm,Calm,-,N/A,,Overcast,0,2013-01-22 00:53:00
5:53 PM,21.9,18.0,85,30.37,6.0,Calm,Calm,-,N/A,,Overcast,0,2013-01-22 01:53:00
6:53 PM,21.9,17.1,82,30.37,5.0,West,5.8,-,N/A,,Haze,270,2013-01-22 02:53:00
7:53 PM,21.9,17.1,82,30.37,2.5,WSW,4.6,-,N/A,,Haze,250,2013-01-22 03:53:00
8:17 PM,21.2,17.6,86,30.29,1.5,Calm,Calm,-,N/A,,Overcast,0,2013-01-22 04:17:00
8:53 PM,21.0,18.0,88,30.38,1.2,Calm,Calm,-,N/A,,Overcast,0,2013-01-22 04:53:00
9:51 PM,21.2,17.6,86,30.30,2.5,Calm,Calm,-,N/A,,Overcast,0,2013-01-22 05:51:00
9:53 PM,21.0,17.1,85,30.38,3.0,Calm,Calm,-,N/A,,Overcast,0,2013-01-22 05:53:00
10:00 PM,21.2,17.6,86,30.30,2.5,Calm,Calm,-,N/A,,Overcast,0,2013-01-22 06:00:00
10:53 PM,21.0,17.1,85,30.38,2.5,Calm,Calm,-,N/A,,Overcast,0,2013-01-22 06:53:00
11:15 PM,21.2,17.6,86,30.30,3.0,NW,5.8,-,N/A,,Overcast,320,2013-01-22 07:15:00
11:53 PM,19.9,16.0,85,30.38,4.0,Calm,Calm,-,N/A,,Overcast,0,2013-01-22 07:53:00